Weather History for Logan, UT

Change the Weather History Date:

Thursday, December 27, 2012

  Actual Average Record
Temperature  
Mean Temperature 21 °F -  
Max Temperature 25 °F 27 °F 51 °F (1980)
Min Temperature 17 °F 7 °F -14 °F (1988)
Degree Days  
Heating Degree Days 44    
Moisture  
Dew Point 19 °F    
Average Humidity 91    
Maximum Humidity 93    
Minimum Humidity 86    
Precipitation  
Precipitation 0.01 in - - ()
Sea Level Pressure  
Sea Level Pressure 29.93 in    
Wind  
Wind Speed 1 mph (NW)    
Max Wind Speed 5 mph    
Max Gust Speed -    
Visibility 3 miles    
Events Snow    
Averages and records for this station are not official NWS values.
T = Trace of Precipitation, MM = Missing Value Source: NWS Daily Summary

Daily Weather History Graph

Daily Weather History Graph

Search for Another Location

Airport:

Trip Planner

Search our weather history database for the weather conditions in past years. The results will help you decide how hot, cold, wet, or windy it might be!

Date:

Astronomy

Dec. 27, 2012 Rise Set
Actual Time 7:53 AM MST 5:03 PM MST
Civil Twilight 7:22 AM MST 5:35 PM MST
Nautical Twilight 6:47 AM MST 6:10 PM MST
Astronomical Twilight 6:13 AM MST 6:44 PM MST
Moon 4:50 PM MST (12/27) 7:07 AM MST (12/27)
Length of Visible Light 10h 12m
Length of Day
9h 09m
Full, 100% of the Moon is Illuminated
Dec 27
Full
Dec 28
Full
Jan 4
Last Quarter
Jan 11
New
Jan 18
First Quarter

Hourly Weather History & Observations

Time (MST) Temp. Windchill Dew Point Humidity Pressure Visibility Wind Dir Wind Speed Gust Speed Precip Events Conditions
12:15 AM 21.2 °F - 19.4 °F 93% 29.74 in 1.8 mi Calm Calm - 0.00 in Snow Light Snow
12:51 AM 21.9 °F - 19.0 °F 89% 29.85 in 2.0 mi Calm Calm - 0.00 in Snow Light Snow
1:00 AM 21.2 °F - 19.4 °F 93% 29.74 in 2.0 mi Calm Calm - 0.00 in Snow Light Snow
1:30 AM 21.2 °F - 19.4 °F 93% 29.75 in 1.8 mi Calm Calm - 0.00 in Snow Light Snow
1:51 AM 21.9 °F - 19.9 °F 92% 29.85 in 1.2 mi Calm Calm - 0.00 in Snow Light Snow
2:26 AM 21.2 °F - 19.4 °F 93% 29.76 in 2.0 mi Calm Calm - 0.00 in Snow Light Snow
2:51 AM 19.9 °F - 18.0 °F 92% 29.88 in 2.5 mi Calm Calm - 0.00 in Snow Light Snow
3:33 AM 19.4 °F 14.3 °F 17.6 °F 93% 29.78 in 1.8 mi NNW 3.5 mph - 0.00 in Snow Light Snow
3:49 AM 19.4 °F 14.3 °F 17.6 °F 93% 29.78 in 2.0 mi NNW 3.5 mph - 0.00 in Snow Light Snow
3:51 AM 19.9 °F - 18.0 °F 92% 29.88 in 2.5 mi Calm Calm - 0.00 in Snow Light Snow
3:58 AM 19.4 °F 14.3 °F 17.6 °F 93% 29.78 in 2.5 mi NNW 3.5 mph - 0.00 in Snow Light Snow
4:08 AM 19.4 °F 12.8 °F 17.6 °F 93% 29.78 in 3.0 mi NNW 4.6 mph - 0.00 in Snow Light Snow
4:17 AM 19.4 °F 14.3 °F 17.6 °F 93% 29.78 in 2.5 mi NNW 3.5 mph - 0.00 in Snow Light Snow
4:29 AM 19.4 °F 14.3 °F 17.6 °F 93% 29.78 in 1.8 mi NNW 3.5 mph - 0.00 in Snow Light Snow
4:51 AM 19.9 °F 14.9 °F 18.0 °F 92% 29.88 in 1.2 mi North 3.5 mph - 0.00 in Snow Light Snow
5:36 AM 19.4 °F 14.3 °F 17.6 °F 93% 29.79 in 3.0 mi NW 3.5 mph - 0.00 in Snow Light Snow
5:51 AM 19.9 °F 14.9 °F 18.0 °F 92% 29.90 in 4.0 mi NW 3.5 mph - 0.00 in   Overcast
6:51 AM 18.0 °F - 16.0 °F 92% 29.94 in 2.5 mi Calm Calm - 0.00 in Snow Light Snow
7:18 AM 19.4 °F - 17.6 °F 93% 29.83 in 3.0 mi Calm Calm - 0.00 in   Overcast
7:38 AM 19.4 °F - 17.6 °F 93% 29.83 in 2.5 mi Calm Calm - 0.00 in Snow Light Snow
7:51 AM 18.0 °F - 16.0 °F 92% 29.95 in 2.0 mi Calm Calm - 0.00 in Snow Light Snow
8:03 AM 17.6 °F - 15.8 °F 93% 29.84 in 1.5 mi Calm Calm - 0.00 in Snow Light Snow
8:51 AM 19.0 °F - 17.1 °F 92% 29.97 in 1.0 mi Calm Calm - 0.00 in Snow Light Snow
9:51 AM 21.0 °F - 19.0 °F 92% 29.99 in 1.5 mi Calm Calm - 0.00 in Snow Light Snow
10:49 AM 23.0 °F - 21.2 °F 93% 29.90 in 1.8 mi Calm Calm - 0.00 in Snow Light Snow
10:51 AM 23.0 °F - 21.0 °F 92% 30.00 in 1.8 mi Calm Calm - 0.00 in Snow Light Snow
10:56 AM 23.0 °F - 21.2 °F 93% 29.90 in 2.0 mi Calm Calm - 0.00 in Snow Light Snow
11:12 AM 23.0 °F - 21.2 °F 93% 29.89 in 2.5 mi Calm Calm - 0.00 in   Overcast
11:35 AM 24.8 °F - 21.2 °F 86% 29.90 in 3.0 mi Calm Calm - 0.00 in   Overcast
11:51 AM 24.1 °F - 21.0 °F 88% 29.99 in 3.0 mi Calm Calm - 0.00 in   Overcast
12:23 PM 24.8 °F - 21.2 °F 86% 29.90 in 4.0 mi Calm Calm - N/A   Overcast
12:51 PM 25.0 °F - 21.9 °F 88% 29.98 in 4.0 mi Calm Calm - N/A   Overcast
1:51 PM 25.0 °F - 21.9 °F 88% 29.98 in 7.0 mi Calm Calm - N/A   Overcast
2:51 PM 25.0 °F - 21.9 °F 88% 30.00 in 8.0 mi Calm Calm - N/A   Overcast
3:40 PM 24.8 °F - 21.2 °F 86% 29.92 in 7.0 mi Calm Calm - N/A   Overcast
3:51 PM 24.1 °F - 21.0 °F 88% 30.02 in 7.0 mi Calm Calm - N/A   Overcast
4:10 PM 24.8 °F - 21.2 °F 86% 29.93 in 2.0 mi Calm Calm - 0.00 in Snow Light Snow
4:12 PM 24.8 °F - 21.2 °F 86% 29.93 in 1.8 mi Calm Calm - 0.00 in Snow Light Snow
4:29 PM 24.8 °F - 21.2 °F 86% 29.93 in 2.0 mi Calm Calm - 0.00 in Snow Light Snow
4:37 PM 24.8 °F - 21.2 °F 86% 29.94 in 1.5 mi Calm Calm - 0.00 in Snow Light Snow
4:48 PM 24.8 °F - 21.2 °F 86% 29.94 in 2.5 mi Calm Calm - 0.00 in Snow Light Snow
4:51 PM 24.1 °F - 21.0 °F 88% 30.05 in 2.5 mi Calm Calm - 0.00 in Snow Light Snow
4:56 PM 24.8 °F - 21.2 °F 86% 29.95 in 3.0 mi Calm Calm - 0.00 in Snow Light Snow
5:08 PM 24.8 °F - 21.2 °F 86% 29.95 in 2.5 mi Calm Calm - 0.00 in Snow Light Snow
5:27 PM 23.0 °F - 21.2 °F 93% 29.96 in 3.0 mi Calm Calm - 0.00 in Snow Light Snow
6:10 PM 21.2 °F - 19.4 °F 93% 29.98 in 6.0 mi Calm Calm - 0.00 in Snow Light Snow
6:51 PM 21.9 °F - 19.9 °F 92% 30.11 in 8.0 mi Calm Calm - 0.00 in   Overcast
7:51 PM 21.0 °F - 19.0 °F 92% 30.14 in 6.0 mi Calm Calm - N/A   Overcast
8:05 PM 21.2 °F - 19.4 °F 93% 30.02 in 4.0 mi Calm Calm - 0.00 in Snow Light Snow
8:35 PM 19.4 °F - 17.6 °F 93% 30.03 in 6.0 mi Calm Calm - 0.00 in Snow Light Snow
8:51 PM 19.9 °F - 17.1 °F 89% 30.15 in 5.0 mi Calm Calm - 0.00 in Snow Light Snow
9:10 PM 19.4 °F - 17.6 °F 93% 30.03 in 5.0 mi Calm Calm - 0.00 in Snow Light Snow
9:51 PM 19.9 °F 14.9 °F 18.0 °F 92% 30.15 in 4.0 mi SSW 3.5 mph - 0.00 in Snow Light Snow
10:51 PM 21.0 °F 14.6 °F 18.0 °F 88% 30.16 in 8.0 mi SW 4.6 mph - 0.00 in   Overcast
11:51 PM 19.9 °F - 17.1 °F 89% 30.17 in 4.0 mi Calm Calm - 0.01 in Snow Light Snow